Terminal Aerodrome Forecast
Issued by NWS

Home | Current Version | Previous Version | Text Only | Print | Product List | Glossary On
Versions: 1 2 3 4 5 6 7 8 9 10 11 12 13 14 15 16 17
000
FTUS43 KLSX 292300
TAFSUS
TAF
KSUS 292329Z 3000/3024 VRB03KT P6SM SKC
     FM301000 00000KT P6SM VCFG FEW001
     FM301300 VRB03KT P6SM SKC
     FM301600 VRB05KT P6SM SCT060=

USA.gov is the U.S. government's official web portal to all federal, state and local government web resources and services.